Regional Weather Roundup
Issued by NWS

Home | Current Version | Previous Version | Text Only | Print | Product List | Glossary Off
Versions: 1 2 3 4 5 6 7 8 9 10 11 12 13 14 15 16 17 18 19 20 21 22 23 24 25 26 27 28 29 30 31 32 33 34 35 36 37 38 39 40 41 42 43 44 45 46 47 48 49 50

000
ASUS43 KOAX 302010
RWRNE

WEATHER ROUNDUP FOR NEBRASKA
NATIONAL WEATHER SERVICE OMAHA NE
200 PM CST FRI JAN 30 2015

NOTES: SATELLITE DATA IS BEING USED TO AUGMENT CLOUD COVER ABOVE
       12000 FEET.
       "FAIR" INDICATES FEW OR NO CLOUDS BELOW 12,000 FEET WITH NO
       SIGNIFICANT WEATHER AND/OR OBSTRUCTIONS TO VISIBILITY.

  * THESE STATIONS DO NOT REPORT WEATHER SUCH AS RAIN...SNOW OR FOG.

NEZ001>004-019>022-054>056-302100-
NEBRASKA PANHANDLE

CITY           SKY/WX    TMP DP  RH WIND       PRES   REMARKS
SCOTTSBLUFF    CLOUDY    41  28  60 NW6       30.14F
ALLIANCE       CLOUDY    47  24  40 CALM      30.13F
CHADRON        PTSUNNY   48  27  44 W3        30.14F
KIMBALL        CLOUDY    46  28  49 N8        30.10F
SIDNEY         CLOUDY    45  28  51 SW8       30.13F
$$

NEZ057>060-069>072-079>082-302100-
SOUTHWEST NEBRASKA

CITY           SKY/WX    TMP DP  RH WIND       PRES   REMARKS
NORTH PLATTE   PTSUNNY   48  26  42 S12       30.19F
IMPERIAL       CLOUDY    53  31  42 S20       30.16F
LEXINGTON      CLOUDY    46  28  48 S15       30.24F
MCCOOK         CLOUDY    49  27  42 S13G22    30.23F
OGALLALA       PTSUNNY   50  31  48 S14       30.15F
$$

NEZ005>010-023>029-035>040-094-302100-
NORTH CENTRAL NEBRASKA

CITY           SKY/WX    TMP DP  RH WIND       PRES   REMARKS
VALENTINE      PTSUNNY   50  25  37 SW15      30.14F
AINSWORTH      PTSUNNY   49  23  36 S16G22    30.15F
BROKEN BOW     PTSUNNY   46  26  45 S17       30.22F
O`NEILL        PTSUNNY   44  28  52 S18G24    30.22F
ORD            PTSUNNY   43  25  49 S17G25    30.26F
THEDFORD       PTSUNNY   50  25  38 S13G20    30.17F
$$

NEZ041-046>049-061>064-073>077-083>087-302100-
SOUTH CENTRAL NEBRASKA

CITY           SKY/WX    TMP DP  RH WIND       PRES   REMARKS
GRAND ISLAND   PTSUNNY   44  26  49 S21       30.32F
AURORA         CLOUDY    42  27  53 S18       30.32F
HASTINGS       PTSUNNY   45  24  43 S13G21    30.32F
HEBRON         PTSUNNY   42  25  49 SW10      30.38F
HOLDREGE       CLOUDY    42  25  49 S15G23    30.28F
KEARNEY *      CLOUDY    45  25  45 S18       30.29F
YORK           CLOUDY    41  27  56 SW15G21   30.34F
$$

NEZ011>018-030>034-042>045-302100-
NORTHEAST NEBRASKA

CITY           SKY/WX    TMP DP  RH WIND       PRES   REMARKS
NORFOLK        MOSUNNY   42  27  55 S17       30.29F
ALBION         PTSUNNY   42  26  53 S15G21    30.29F
BLAIR          SUNNY     37  23  58 S13G20    30.37F WCI  28
COLUMBUS *     PTSUNNY   39  25  56 SW14G20   30.35F WCI  31
FREMONT        MOSUNNY   40  26  57 S14G20    30.36F WCI  32
TEKAMAH        SUNNY     38  24  57 S16       30.38F WCI  29
WAYNE          SUNNY     40  28  60 S16       30.31F WCI  32
$$

NEZ050>053-065>068-078-088>093-302100-
SOUTHEAST NEBRASKA

CITY           SKY/WX    TMP DP  RH WIND       PRES   REMARKS
LINCOLN        PTSUNNY   40  25  55 S12       30.39F WCI  33
OMAHA EPPLEY   CLOUDY    35  22  58 S12       30.40F WCI  27
BEATRICE       PTSUNNY   40  25  55 S12       30.39F WCI  33
FALLS CITY     PTSUNNY   37  22  54 SW5       30.44F WCI  33
NEBRASKA CITY  PTSUNNY   35  20  54 S8        30.42F WCI  29
PLATTSMOUTH    MOSUNNY   35  21  56 S10       30.41F WCI  27
$$

NEZ044-045-051>053-067-302100-
OMAHA AREA

CITY           SKY/WX    TMP DP  RH WIND       PRES   REMARKS
OMAHA EPPLEY   CLOUDY    35  22  58 S12       30.40F WCI  27
BLAIR          SUNNY     37  23  58 S13G20    30.37F WCI  28
FREMONT        MOSUNNY   40  26  57 S14G20    30.36F WCI  32
MILLARD        MOSUNNY   37  24  59 SE9       30.40F WCI  30
OFFUTT AFB     MOSUNNY   35  22  58 S8        30.40F WCI  29
PLATTSMOUTH    MOSUNNY   35  21  56 S10       30.41F WCI  27
WAHOO          FAIR      39  24  54 S12       30.38F WCI  32
$$



USA.gov is the U.S. government's official web portal to all federal, state and local government web resources and services.